Kahului, HI

6:22 PM HST on April 29, 2017 (GMT -1000)
Kahului

Weather History for PHOG - June, 2014

Change the Weather History Date:

Sunday, June 1, 2014

  Actual Average Record
Temperature  
Mean Temperature 77 °F 77 °F  
Max Temperature 87 °F 86 °F 92 °F (1969)
Min Temperature 66 °F 69 °F 59 °F (1974)
Degree Days  
Heating Degree Days 0 0  
Month to date heating degree days 0 0  
Since 1 June heating degree days 0 0  
Since 1 July heating degree days 0 0  
Cooling Degree Days 12 12  
Month to date cooling degree days 12 12  
Year to date cooling degree days 1508 1271  
Since 1 June cooling degree days 12 12  
Growing Degree Days 26 (Base 50)    
Moisture  
Dew Point 66 °F    
Average Humidity 70    
Maximum Humidity 84    
Minimum Humidity 55    
Precipitation  
Precipitation T in 0.01 in 0.10 in (2012)
Month to date precipitation T 0.01  
Year to date precipitation 13.96 9.51  
Snow  
Snow 0.00 in - - ()
Month to date snowfall 0.0  
Since 1 June snowfall 0.0  
Since 1 July snowfall 0.0  
Snow Depth 0.00 in    
Sea Level Pressure  
Sea Level Pressure 30.00 in    
Wind  
Wind Speed 11 mph (ENE)    
Max Wind Speed 24 mph    
Max Gust Speed 29 mph    
Visibility 10 miles    
Events Rain    
T = Trace of Precipitation, MM = Missing Value Source: NWS Daily Summary

Daily Weather History Graph

Daily Weather History Graph

Search for Another Location

Airport or City:

Trip Planner

Search our weather history database for the weather conditions in past years. The results will help you decide how hot, cold, wet, or windy it might be!

Date:

Astronomy

Jun. 01, 2014 Rise Set
Actual Time 5:43 AM HST 7:03 PM HST
Civil Twilight 5:19 AM HST 7:27 PM HST
Nautical Twilight 4:50 AM HST 7:56 PM HST
Astronomical Twilight 4:20 AM HST 8:27 PM HST
Moon 9:11 AM HST (6/1) 10:22 PM HST (6/1)
Length of Visible Light 14h 08m
Length of Day
13h 19m
Waxing Crescent, 16% of the Moon is Illuminated
Jun 1
Waxing Crescent
Jun 5
First Quarter
Jun 12
Full
Jun 19
Last Quarter
Jun 26
New

Hourly Weather History & Observations

Time (HST) Temp. Heat Index Dew Point Humidity Pressure Visibility Wind Dir Wind Speed Gust Speed Precip Events Conditions
12:54 AM 71.1 °F - 64.0 °F 78% 30.02 in 10.0 mi Calm Calm - N/A   Scattered Clouds
1:54 AM 70.0 °F - 64.0 °F 81% 30.02 in 10.0 mi ESE 8.1 mph - N/A   Partly Cloudy
2:54 AM 70.0 °F - 64.0 °F 81% 30.01 in 10.0 mi NW 3.5 mph - N/A   Clear
3:54 AM 69.1 °F - 63.0 °F 81% 30.01 in 10.0 mi SE 6.9 mph - N/A   Clear
4:54 AM 68.0 °F - 62.1 °F 81% 30.01 in 10.0 mi Calm Calm - N/A   Clear
5:54 AM 66.0 °F - 61.0 °F 84% 30.01 in 10.0 mi Calm Calm - N/A   Scattered Clouds
6:54 AM 75.9 °F - 66.9 °F 74% 30.02 in 10.0 mi NNE 13.8 mph - N/A   Scattered Clouds
7:54 AM 78.1 °F - 66.9 °F 68% 30.04 in 10.0 mi NE 12.7 mph - N/A   Scattered Clouds
8:54 AM 77.0 °F - 68.0 °F 74% 30.05 in 10.0 mi ENE 13.8 mph 21.9 mph N/A   Scattered Clouds
9:54 AM 78.1 °F - 68.0 °F 71% 30.04 in 10.0 mi ENE 16.1 mph 26.5 mph 0.00 in Rain Light Rain
10:54 AM 82.0 °F 85.5 °F 69.1 °F 65% 30.02 in 10.0 mi ENE 18.4 mph 25.3 mph 0.00 in   Scattered Clouds
11:54 AM 82.9 °F 85.4 °F 66.9 °F 58% 30.01 in 10.0 mi East 18.4 mph 26.5 mph N/A   Partly Cloudy
12:54 PM 84.9 °F 87.6 °F 66.9 °F 55% 29.98 in 10.0 mi East 16.1 mph 26.5 mph N/A   Scattered Clouds
1:54 PM 86.0 °F 89.4 °F 68.0 °F 55% 29.97 in 10.0 mi ENE 17.3 mph 24.2 mph N/A   Mostly Cloudy
2:54 PM 84.9 °F 88.2 °F 68.0 °F 57% 29.96 in 10.0 mi ENE 19.6 mph 28.8 mph N/A   Mostly Cloudy
3:54 PM 84.0 °F 87.0 °F 68.0 °F 58% 29.94 in 10.0 mi ENE 16.1 mph 25.3 mph N/A   Scattered Clouds
4:54 PM 84.0 °F 86.5 °F 66.9 °F 56% 29.93 in 10.0 mi ENE 17.3 mph 24.2 mph N/A   Scattered Clouds
5:54 PM 82.9 °F 85.4 °F 66.9 °F 58% 29.94 in 10.0 mi ENE 11.5 mph 19.6 mph N/A   Mostly Cloudy
6:54 PM 80.1 °F 82.1 °F 66.0 °F 62% 29.95 in 10.0 mi East 9.2 mph - N/A   Scattered Clouds
7:54 PM 77.0 °F - 66.0 °F 69% 29.98 in 10.0 mi East 6.9 mph - N/A   Clear
8:54 PM 75.0 °F - 63.0 °F 66% 29.99 in 10.0 mi East 5.8 mph - N/A   Clear
9:54 PM 73.9 °F - 64.0 °F 71% 30.00 in 10.0 mi ENE 6.9 mph - N/A   Clear
10:54 PM 73.0 °F - 66.0 °F 79% 30.01 in 10.0 mi ESE 4.6 mph - N/A   Partly Cloudy
11:54 PM 71.1 °F - 66.0 °F 84% 30.01 in 10.0 mi SE 3.5 mph - N/A   Partly Cloudy